Погода в Торопеце

Погода в Торопеце : погода сейчас, прогноз погоды и архив. Всё, что Вы хотите узнать о погоде в Торопеце!

Поиск расширенной информации на нашем сайте:

Другие новости

Новости СМИ2

Главная страница сайта

Новости сайта

03.07.2017

Напоминаем, что на нашем специализированном сайте Метеоцентр.Азия вы можете получить высокодетализированные автоматические прогнозы погоды по пунктам России, СНГ и мира в авиационном формате (включающие направление и скорость ветра, видимость, явления погоды, количество и форму облачности, нижнюю и верхнюю границу облачности).


Погода в Торопеце - сегодня

Время (UTC), дата Ветер
(°,м/с) 
Видим.   Явления Облачность Т
(°С)
Тd
(°С)
f(%) Тe
(°С)
Pmin
(гПа)
dP
(гПа)
Po
(мм)
O2
(г/м3)
Тmin Tmax R s Состояние
почвы
21 12.07.18 350 (С) 20000 м    9/9 600 м 
[Sc]
+16.9 +14.6 86 +26  1014.6  745  279           
00 13.07.18 тихо ()   20000 м    9/9 600 м 
[Sc]
+14.4 +13.4 94 +21  1014.6  -0.2  744  282           
03 13.07.18 тихо ()   20000 м    3/3 600 м 
[Sc]
+16.4 +15.2 93 +26  1013.9  -0.6  744  280  +14.2         
09 13.07.18 110 (В) 20000 м    8/8 600 м верхняя 
[Sc|Ci fib]
+25.9 +10.8 39 +28  1012.1  -0.8  743  272           
12 13.07.18 070 (В) 20000 м    8/6 600 м верхняя 
[Sc|Ci fib]
+25.4 +12 43 +30  1010.6  -1.5  742  271           
15 13.07.18 120 (ЮВ) 20000 м    8/6 600 м кучево-дожд., верхняя 
[Cb cap|Ci fib]
+26.4 +11 38 +29  1009.6  -0.9  741  270           
21 13.07.18 тихо ()   20000 м    8/4 600 м верхняя 
[Sc|Ci fib]
+17.5 +14.5 83 +26  1010.3  -0.1  741  278           
00 14.07.18 360 (С) 20000 м    8/0 верхняя 
[Ci fib]
+15.1 +13.8 92 +23  1009.8  -0.7  741  280           
03 14.07.18 030 (СВ) 20000 м    8/0 средняя, верхняя 
[Ac trans|Ci sp]
+17.4 +15.1 86 +28  1009.7  0.1  741  277  +14.5         
09 14.07.18 040 (СВ) 20000 м    10/6 600 м кучево-дожд., верхняя 
[Cb cap|Ci fib]
+24.8 +15.7 57 +35  1008.5  740  270           
12 14.07.18 080 (В) 20000 м    8/5 600 м кучево-дожд., верхняя 
[Cb cap|Ci fib]
+25.4 +14.2 50 +33  1006.8  -1.6  739  270           
21 14.07.18 090 (В) 4000 м  дымка  6/4 600 м кучево-дожд., верхняя 
[Cb cap|Ci fib]
+16.8 +16 95 +29  1008.3  0.4  740  277           
03 15.07.18 тихо ()   4000 м  дымка{ливн. осадки}  3/3 600 м 
[Sc]
+14.9 +14.2 96 +23  1009.1  0.3  740  280  +14.4    0.5     
06 15.07.18 070 (В) 20000 м  {ливн. осадки}  3/1 600 м верхняя 
[Sc|Ci fib]
+22.1 +16.5 71 +34  1008.9  0.3  741  272  +14.4    0.3    влажная 
09 15.07.18 080 (В) 20000 м    8/5 600 м верхняя 
[Cu Sc|Ci fib]
+25.2 +15.7 56 +35  1009.2  0.5  741  270           
12 15.07.18 060 (СВ) 20000 м    9/8 600 м кучево-дожд., верхняя 
[Cb cap|Ci sp]
+26.8 +15.1 49 +36  1008.4  -0.7  740  269           
21 15.07.18 030 (СВ) 20000 м    8/3 600 м верхняя 
[Sc|Ci fib]
+18 +16.1 89 +30  1010.7  0.2  742  277           
00 16.07.18 тихо ()   20000 м    8/0 верхняя 
[Ci fib]
+16.5 +15.4 93 +26  1011.4  0.6  742  279           
03 16.07.18 тихо ()   20000 м    8/0 верхняя 
[Ci fib]
+17.3 +16.5 95 +29  1011.3  742  278  +15.2         
09 16.07.18 070 (В) 20000 м    9/8 600 м верхняя 
[Cu Sc|Ci fib]
+27 +16.8 54 +39  1010.2  -0.3  742  268           
15 16.07.18 030 (СВ) 20000 м    9/9 600 м кучево-дожд. 
[Cb cap]
+27.2 +16.7 53 +39  1009.2  -0.3  741  268         
18 16.07.18 030 (СВ) 1{11}  20000 м  {гроза, ливн. осадки}  9/6 600 м кучево-дожд., верхняя 
[Cb cap|Ci sp]
+22 +17.7 77 +36  1009.9  0.3  741  272    +27.8     
21 16.07.18 020 (С) 20000 м    8/0 верхняя 
[Ci sp]
+20.4 +16.7 79 +33  1009.9  -0.2  741  274           
00 17.07.18 040 (СВ) 20000 м    ясно 
+19.5 +15.9 80 +32  1009.6  -0.3  741  275           
03 17.07.18 040 (СВ) 20000 м    8/0 верхняя 
[Ci sp]
+19.9 +16.1 79 +32  1009.7  0.2  741  275  +19.1         
Время (UTC), дата Ветер
(°,м/с) 
Видим.   Явления Облачность Т
(°С)
Тd
(°С)
f(%) Тe
(°С)
Pmin
(гПа)
dP
(гПа)
Po
(мм)
O2
(г/м3)
Тmin Tmax R s Состояние
почвы

Для получения пояснительной информации подведите курсор к названию столбца.

ПОГОДА в Торопеце - архив

Всё, что Вы хотите узнать о погоде в Торопеце - удобно и подробно!

Выберите нужную дату (начиная с 1 января 2015* года) и нажмите кнопку "Найти".
Будут отображены архивные сводки погоды по пункту Торопец, начиная с указанной даты.


Отображать данные в формате CSV (для использования в таблицах Excel)


Внимание! Наш архив погоды предназначен исключительно для личного некоммерческого использования в познавательных целях. Если Вам необходимы официальные справки о состоянии погоды (для производственных, юридических, коммерческих и т.п. целей), обращайтесь в органы Росгидромета.

*Примечание: данная дата относится к архиву по метеостанциям СССР (Россия, СНГ, Балтия).
Архив по метеостанциям Зарубежной Европы и Азии (кроме Китая) хранится 10 дней, по другим регионам земного шара (Китай, Африка, Америка, Австралия, Океания) - 1 день.

Торопец - район местоположения метеостанции


Название, широта, долгота, высота метеостанции:
Торопец 56.5°ш. 31.6°д. 187 м над ур. моря [Российская Федерация]

Дополнительная информация

В oтличие oт бoльшинства пoгoдных сайтoв мы публикуем пoдрoбную метеoинфoрмацию в детальнoм прoфессиoнальнoм фoрмате.

Характеристики температуры и влажнoсти вoздуха измеряются на высoте 2 м в тени вдали oт зданий и деревьев.
Скoрoсть ветра измеряется на высoте 10 м (на урoвне рoста челoвека скoрoсть ветра ниже в 1.5-2 раза). Если метеoстанция нахoдится в гoрoде или в лесу, тo скoрoсть ветра занижена на 2-4 м/с пo сравнению с oткрытым местoм. Скoрoсть ветра над акватoриями крупных рек и oзёр, а также на вершинах хoлмoв на 2-5 м/с выше, чем в oбычных услoвиях.
Атмoсфернoе давление в разных тoчках местнoсти мoжет значительнo oтличаться oт давления на метеoстанции, в зависимoсти oт услoвий рельефа (при пoдъёме на 10 м давление пoнижается примернo на 1 мм рт.ст.).